Flag for U.S.A. Weather past 2 weeks in New York, New York, U.S.A.

Now
63 °F

Sunny.


Feels Like: 63 °F
Forecast: 56 / 78 °F
Wind: 3 mph from Northwest

Location: New York City - Central Park

Current Time: Apr 18, 2015 at 9:37:44 AM

Latest Report: Apr 18, 2015 at 8:51 AM


Visibility: 10 mi

Pressure: 30.00 "Hg

Humidity: 50%

Dew point: 44 °F

Location of New YorkLocation

Historic Weather in New York — Graph

°F

New York temperature yesterday

Maximum temperature yesterday: 70 °F (at 5:51 PM)
Minimum temperature yesterday: 55 °F (at 5:51 AM)
Average temperature yesterday: 62 °F

Past Weeks' High & Low Weather Summary

 TemperatureHumidityPressure
High71 °F (Apr 15, 3:51 PM)93% (Apr 10, 12:51 AM)30.48 "Hg (Apr 10, 12:51 AM)
Low37 °F (Apr 8, 10:51 PM)12% (Apr 15, 5:51 PM)29.45 "Hg (Apr 4, 3:51 AM)
Average53 °F55%30.13 "Hg
* Reported Apr 3 7:51 AM — Apr 18 7:51 AM, New York, Weather by CustomWeather, © 2015

Note: Actual official high and low records may vary slightly from our data, if they occured in-between our weather recording intervals... More about our weather records

Advertising

New York weather history for previous 24 hours

 ConditionsComfort  
Time TempWeatherWind HumidityBarometerVisibility
7:51 AM
Sat, Apr 18
61 °FSunny.3 mph52%30.00 "Hg10 mi
6:51 AM59 °FClear.5 mph56%29.98 "Hg10 mi
5:51 AM59 °FClear.5 mph56%29.96 "Hg10 mi
4:51 AM60 °FClear.No wind56%29.96 "Hg10 mi
3:51 AM60 °FClear.No wind56%29.96 "Hg10 mi
2:51 AM61 °FPassing clouds.No wind56%29.96 "Hg10 mi
1:51 AM63 °FClear.No wind54%29.97 "Hg10 mi
12:51 AM63 °FClear.6 mph56%29.97 "Hg10 mi
11:51 PM
Fri, Apr 17
64 °FPassing clouds.No wind61%29.97 "Hg10 mi
10:51 PM66 °FPassing clouds.No wind59%29.96 "Hg10 mi
9:51 PM66 °FClear.No wind61%29.95 "Hg10 mi
8:51 PM68 °FPassing clouds.3 mph57%29.93 "Hg10 mi
7:51 PM69 °FMostly cloudy.5 mph55%29.91 "Hg10 mi
6:51 PM70 °FBroken clouds.3 mph53%29.90 "Hg10 mi
5:51 PM70 °FPassing clouds.N/A53%29.89 "Hg10 mi
4:51 PM69 °FScattered clouds.5 mph55%29.90 "Hg10 mi
3:51 PM69 °FScattered clouds.3 mph57%29.93 "Hg10 mi
3:00 PM65 °FBroken clouds.No wind63%29.97 "Hg10 mi
1:51 PM63 °FOvercast.6 mph70%29.97 "Hg10 mi
12:51 PM62 °FMostly cloudy.8 mph75%30.00 "Hg8 mi
11:51 AM61 °FOvercast.8 mph78%30.02 "Hg9 mi
10:51 AM59 °FLow clouds.7 mph81%30.05 "Hg9 mi
9:51 AM58 °FLow clouds.13 mph81%30.06 "Hg10 mi
Weather by CustomWeather, © 2015

See weather overviewHow to use our weather pages